Home > Weather > Delta > Past weeks

Flag for Canada Past Weather in Delta, British Columbia, Canada — Yesterday and Last 2 Weeks

Now
59 °F

Scattered clouds.


Feels Like: 57 °F
Forecast: 45 / 66 °F
Wind: 9 mph from Southwest

Location: Vancouver International Airport

Current Time: May 30, 2016 at 1:22:58 PM

Latest Report: May 30, 2016 at 1:00 PM


Visibility: 30 mi

Pressure: 30.30 "Hg

Humidity: 77%

Dew Point: 52 °F

Location of DeltaLocation

Past Weather in Delta — Graph

°F

Delta Temperature Yesterday

Maximum temperature yesterday: 63 °F (at 2:00 PM)
Minimum temperature yesterday: 50 °F (at 4:00 AM)
Average temperature yesterday: 57 °F

High & Low Weather Summary for the Past Weeks

 TemperatureHumidityPressure
High66 °F (May 17, 5:00 PM)100% (May 27, 7:00 AM)30.32 "Hg (May 27, 7:00 AM)
Low48 °F (May 21, 2:00 AM)49% (May 21, 4:00 PM)29.72 "Hg (May 21, 5:00 AM)
Average57 °F75%30.01 "Hg
* Reported May 15 12:00 PM — May 30 12:00 PM, Delta, Weather by CustomWeather, © 2016

Note: Actual official high and low records may vary slightly from our data, if they occured in-between our weather recording intervals... More about our weather records

Advertising

Delta Weather History for the Previous 24 Hours

Scroll right to see more
 ConditionsComfort  
Time TempWeatherWind HumidityBarometerVisibility
12:00 PM
Mon, May 30
59 °FScattered clouds.9 mph77%30.31 "Hg30 mi
11:00 AM59 °FScattered clouds.12 mph77%30.31 "Hg30 mi
10:00 AM59 °FScattered clouds.5 mph63%30.31 "Hg30 mi
9:00 AM57 °FScattered clouds.3 mph72%30.32 "Hg30 mi
8:00 AM55 °FScattered clouds.5 mph77%30.32 "Hg30 mi
7:00 AM54 °FScattered clouds.7 mph77%30.31 "Hg30 mi
6:00 AM50 °FPassing clouds.6 mph88%30.30 "Hg30 mi
5:00 AM50 °FPassing clouds.5 mph88%30.29 "Hg30 mi
4:00 AM50 °FClear.5 mph88%30.28 "Hg30 mi
3:00 AM48 °FPassing clouds.9 mph94%30.27 "Hg20 mi
2:00 AM50 °FPassing clouds.7 mph88%30.25 "Hg20 mi
1:00 AM54 °FPassing clouds.7 mph77%30.24 "Hg30 mi
12:00 AM55 °FPassing clouds.8 mph72%30.22 "Hg30 mi
11:00 PM
Sun, May 29
55 °FPassing clouds.8 mph77%30.22 "Hg30 mi
10:00 PM55 °FPassing clouds.6 mph67%30.20 "Hg30 mi
9:00 PM57 °FPassing clouds.7 mph63%30.18 "Hg30 mi
8:00 PM59 °FPassing clouds.6 mph68%30.17 "Hg30 mi
7:00 PM61 °FPassing clouds.10 mph52%30.16 "Hg30 mi
6:00 PM63 °FPassing clouds.14 mph52%30.16 "Hg30 mi
5:00 PM63 °FPassing clouds.14 mph56%30.15 "Hg30 mi
4:00 PM61 °FPassing clouds.12 mph68%30.15 "Hg20 mi
3:00 PM61 °FPassing clouds.14 mph68%30.15 "Hg20 mi
2:00 PM63 °FPassing clouds.17 mph64%30.14 "Hg20 mi
1:00 PM61 °FScattered clouds.15 mph68%30.13 "Hg20 mi
Weather by CustomWeather, © 2016

See weather overviewHow to use our weather pages